UAL2075 KGTF-KDEN

Flight info

Callsign UAL2075
Flight time N/A
Altitude 39000
Route GTF TOFUU FLATI5
Aircraft A319/M-SDE3FGHIRWY/LB1

Departure

Time 2026-04-30 14:48
Airport Great Falls International Airport (KGTF)

Arrival

Time N/A
Airport Denver International Airport (KDEN)
Time Latitude Longitude Altitude Speed Heading
2026-04-30 14:26 47.48293 -111.35658 3668 ft 0 kts 160°
2026-04-30 14:41 47.48311 -111.35668 3668 ft 4 kts 159°
2026-04-30 14:42 47.48335 -111.35683 3668 ft 4 kts 146°
2026-04-30 14:42 47.48347 -111.35710 3668 ft 4 kts 90°
2026-04-30 14:42 47.48346 -111.35747 3668 ft 2 kts 89°
2026-04-30 14:42 47.48346 -111.35755 3668 ft 0 kts 89°
2026-04-30 14:44 47.48346 -111.35751 3673 ft 2 kts 89°
2026-04-30 14:44 47.48352 -111.35682 3673 ft 10 kts 70°
2026-04-30 14:45 47.48423 -111.35636 3667 ft 14 kts 10°
2026-04-30 14:45 47.48528 -111.35604 3666 ft 17 kts 11°
2026-04-30 14:45 47.48655 -111.35569 3666 ft 20 kts 11°
2026-04-30 14:45 47.48752 -111.35454 3665 ft 18 kts 45°
2026-04-30 14:46 47.48835 -111.35333 3663 ft 15 kts 45°
2026-04-30 14:46 47.48891 -111.35293 3663 ft 8 kts 340°
2026-04-30 14:46 47.48936 -111.35351 3661 ft 11 kts 317°
2026-04-30 14:46 47.48945 -111.35416 3661 ft 0 kts 225°
2026-04-30 14:47 47.48943 -111.35419 3661 ft 0 kts 225°
2026-04-30 14:47 47.48882 -111.35507 3662 ft 36 kts 225°
2026-04-30 14:47 47.48567 -111.35974 3666 ft 92 kts 225°
2026-04-30 14:47 47.47980 -111.36839 3673 ft 144 kts 225°
2026-04-30 14:48 47.47218 -111.37968 4131 ft 154 kts 225°
2026-04-30 14:48 47.46462 -111.39085 4888 ft 154 kts 226°
2026-04-30 14:48 47.45675 -111.40171 5495 ft 161 kts 217°
2026-04-30 14:48 47.44520 -111.40647 5822 ft 188 kts 179°
2026-04-30 14:49 47.43215 -111.39997 6171 ft 214 kts 154°
2026-04-30 14:49 47.41812 -111.38940 6702 ft 230 kts 153°
2026-04-30 14:49 47.40397 -111.37869 7657 ft 230 kts 153°
2026-04-30 14:49 47.38955 -111.36784 8520 ft 234 kts 152°
2026-04-30 14:50 47.36001 -111.34576 10243 ft 246 kts 151°
2026-04-30 14:50 47.34371 -111.33363 10696 ft 271 kts 151°
2026-04-30 14:51 47.30702 -111.30636 11494 ft 320 kts 152°
2026-04-30 14:51 47.28639 -111.29109 11817 ft 344 kts 152°
2026-04-30 14:51 47.24110 -111.25780 12628 ft 377 kts 152°
2026-04-30 14:52 47.21742 -111.24042 13366 ft 382 kts 152°
2026-04-30 14:52 47.16939 -111.20525 14740 ft 390 kts 152°
2026-04-30 14:52 47.14499 -111.18745 15363 ft 394 kts 152°
2026-04-30 14:53 47.09539 -111.15127 16620 ft 402 kts 152°
2026-04-30 14:53 47.07018 -111.13288 17270 ft 406 kts 152°
2026-04-30 14:54 47.01919 -111.09574 18556 ft 414 kts 152°
2026-04-30 14:54 46.96715 -111.05782 19654 ft 421 kts 152°
2026-04-30 14:55 46.91421 -111.01936 20732 ft 428 kts 152°
2026-04-30 14:55 46.88740 -110.99998 21235 ft 432 kts 152°
2026-04-30 14:55 46.83303 -110.96073 22195 ft 439 kts 152°
2026-04-30 14:56 46.77794 -110.92100 23114 ft 445 kts 152°
2026-04-30 14:56 46.72200 -110.88065 23983 ft 451 kts 152°
2026-04-30 14:57 46.69377 -110.86034 24355 ft 454 kts 152°
2026-04-30 14:57 46.63669 -110.81935 25083 ft 460 kts 152°
2026-04-30 14:58 46.57863 -110.77776 25813 ft 465 kts 153°
2026-04-30 14:58 46.54948 -110.75696 26181 ft 468 kts 153°
2026-04-30 14:58 46.49072 -110.71520 26901 ft 472 kts 153°
2026-04-30 14:59 46.43141 -110.67312 27577 ft 477 kts 153°
2026-04-30 15:00 46.34122 -110.60912 28615 ft 485 kts 153°
2026-04-30 15:00 46.28042 -110.56611 29454 ft 486 kts 154°
2026-04-30 15:01 46.21976 -110.52329 30463 ft 484 kts 154°
2026-04-30 15:01 46.19979 -110.50921 30748 ft 484 kts 154°
2026-04-30 15:01 46.12915 -110.45956 31776 ft 482 kts 154°
2026-04-30 15:02 46.09900 -110.43843 32235 ft 481 kts 154°
2026-04-30 15:02 46.06888 -110.41737 32685 ft 481 kts 154°
2026-04-30 15:03 45.97874 -110.35445 33998 ft 480 kts 154°
2026-04-30 15:03 45.91875 -110.31255 34761 ft 479 kts 154°
2026-04-30 15:04 45.85866 -110.27085 35470 ft 480 kts 154°
2026-04-30 15:04 45.76837 -110.20835 36449 ft 481 kts 154°
2026-04-30 15:05 45.67756 -110.14561 37403 ft 481 kts 154°
2026-04-30 15:06 45.61716 -110.10402 38004 ft 482 kts 155°
2026-04-30 15:06 45.55671 -110.06261 38607 ft 482 kts 155°
2026-04-30 15:07 45.49623 -110.02117 39145 ft 482 kts 155°
2026-04-30 15:07 45.43564 -109.97967 39318 ft 483 kts 155°
2026-04-30 15:08 45.37512 -109.93843 39317 ft 482 kts 155°
2026-04-30 15:09 45.22405 -109.83595 39324 ft 481 kts 155°
2026-04-30 15:10 45.10310 -109.75427 39329 ft 481 kts 155°
2026-04-30 15:11 44.92147 -109.63237 39339 ft 482 kts 156°
2026-04-30 15:13 44.77967 -109.53769 39327 ft 483 kts 156°
2026-04-30 15:14 44.56649 -109.39655 39309 ft 485 kts 156°
2026-04-30 15:17 44.29157 -109.21594 39310 ft 485 kts 156°
2026-04-30 15:19 44.04620 -109.05659 39299 ft 486 kts 156°